Time,TemperatureF,DewpointF,PressureIn,WindDirection,WindDirectionDegrees,WindSpeedMPH,WindSpeedGustMPH,Humidity,HourlyPrecipIn,Conditions,Clouds,dailyrainin,SoftwareType,DateUTC
2013-04-24 17:38:00,73.9,73.3,29.65,West,270,3.2,-999.0,98,-99.99,,,0.00,Acu-Link.com,2013-04-24 21:38:00,
2013-04-24 17:53:00,72.0,71.4,29.65,NNW,337,3.2,-999.0,98,-99.99,,,0.00,Acu-Link.com,2013-04-24 21:53:00,
2013-04-24 18:08:00,70.5,-34.5,29.64,South,180,2.2,-999.0,1,-99.99,,,0.00,Acu-Link.com,2013-04-24 22:08:00,
2013-04-24 18:24:00,70.2,-34.7,29.64,NE,45,0.0,-999.0,1,-99.99,,,0.00,Acu-Link.com,2013-04-24 22:24:00,
2013-04-24 18:39:00,69.4,-35.2,29.65,South,180,4.7,-999.0,1,-99.99,,,0.00,Acu-Link.com,2013-04-24 22:39:00,
2013-04-24 18:54:00,68.4,-35.8,29.66,West,270,0.0,-999.0,1,-99.99,,,0.00,Acu-Link.com,2013-04-24 22:54:00,
2013-04-24 19:10:00,67.3,-36.4,29.65,SW,225,3.7,-999.0,1,-99.99,,,0.00,Acu-Link.com,2013-04-24 23:10:00,
2013-04-24 19:25:00,65.7,-37.4,29.66,WSW,247,2.2,-999.0,1,-99.99,,,0.00,Acu-Link.com,2013-04-24 23:25:00,
2013-04-24 19:41:00,65.3,-37.6,29.67,WNW,292,2.7,-999.0,1,-99.99,,,0.00,Acu-Link.com,2013-04-24 23:41:00,
2013-04-24 19:56:00,64.8,-37.9,29.68,South,180,2.7,-999.0,1,-99.99,,,0.00,Acu-Link.com,2013-04-24 23:56:00,
2013-04-24 20:11:00,63.7,-38.6,29.69,West,270,1.7,-999.0,1,-99.99,,,0.00,Acu-Link.com,2013-04-25 00:11:00,
2013-04-24 20:26:00,63.0,-39.0,29.68,SW,225,1.1,-999.0,1,-99.99,,,0.00,Acu-Link.com,2013-04-25 00:26:00,
2013-04-24 20:41:00,62.2,-39.5,29.69,NE,45,3.2,-999.0,1,-99.99,,,0.00,Acu-Link.com,2013-04-25 00:41:00,
2013-04-24 20:57:00,61.5,-39.9,29.68,NNW,337,1.7,-999.0,1,-99.99,,,0.00,Acu-Link.com,2013-04-25 00:57:00,
2013-04-24 21:12:00,61.0,1.8,29.68,SW,225,0.0,-999.0,9,-99.99,,,0.00,Acu-Link.com,2013-04-25 01:12:00,
2013-04-24 21:27:00,60.4,59.8,29.69,ENE,67,2.2,-999.0,98,-99.99,,,0.00,Acu-Link.com,2013-04-25 01:27:00,
2013-04-24 21:46:00,59.9,59.3,29.70,ENE,67,2.2,-999.0,98,-99.99,,,0.00,Acu-Link.com,2013-04-25 01:46:00,
2013-04-24 22:01:00,59.4,58.8,29.71,SSW,202,1.7,-999.0,98,-99.99,,,0.00,Acu-Link.com,2013-04-25 02:01:00,
2013-04-24 22:16:00,58.8,58.2,29.71,NE,45,0.0,-999.0,98,-99.99,,,0.00,Acu-Link.com,2013-04-25 02:16:00,
2013-04-24 22:31:00,58.5,57.9,29.71,NE,45,1.1,-999.0,98,-99.99,,,0.00,Acu-Link.com,2013-04-25 02:31:00,
2013-04-24 22:47:00,58.5,57.9,29.70,East,90,1.7,-999.0,98,-99.99,,,0.00,Acu-Link.com,2013-04-25 02:47:00,
2013-04-24 23:02:00,58.5,57.9,29.70,WSW,247,1.7,-999.0,98,-99.99,,,0.00,Acu-Link.com,2013-04-25 03:02:00,
2013-04-24 23:17:00,58.5,57.9,29.70,ESE,112,2.2,-999.0,98,-99.99,,,0.00,Acu-Link.com,2013-04-25 03:17:00,
2013-04-24 23:32:00,58.6,58.0,29.70,East,90,2.7,-999.0,98,-99.99,,,0.00,Acu-Link.com,2013-04-25 03:32:00,
2013-04-24 23:48:00,58.6,58.0,29.69,SSE,157,2.7,-999.0,98,-99.99,,,0.00,Acu-Link.com,2013-04-25 03:48:00,